Powrót do katalogu

FALCON HEAVY R/B

AktywnyLEO
NORAD 58050·ROCKET BODY·🇺🇸 United States

Wystrzelony Oct 13, 2023 z Cape Canaveral Space Force Station

Loading…

Następne Przeloty (najbliższe 24 godziny)

TLE

NieaktualneSource: Space-Track

Epoka: Oct 13, 2023, 14:28 UTC

1 58050U 23157B   23286.60289039  .00001209 -37902-5  00000-0 0  9993
2 58050  30.0000  47.5426 0467200 123.5100 359.9800 15.29658471    04

Śledź FALCON HEAVY R/B w czasie rzeczywistym z AllMySat

Download on the App Store